| time (UTC) | temp F | wind direction | speed knots | gust knots | rain 1hr in | rain 24hr in | rain mn in | humidity % | barometer mb |
| 20260905081236 | 78 | 220 | 0.0 | 9.6 | 0.00 | 0.00 | 0.00 | 89 | 1010.8 |
| 20260905080736 | 78 | 220 | 0.0 | 9.6 | 0.00 | 0.00 | 0.00 | 89 | 1010.6 |
| 20260905080235 | 77 | 220 | 0.0 | 9.6 | 0.00 | 0.00 | 0.00 | 89 | 1010.8 |
| 20260905075735 | 77 | 220 | 0.0 | 9.6 | 0.00 | 0.00 | 0.00 | 88 | 1010.3 |
| 20260905075235 | 77 | 220 | 0.0 | 9.6 | 0.00 | 0.00 | 0.00 | 88 | 1010.2 |
| 20260905074219 | 78 | 220 | 0.0 | 9.6 | 0.00 | 0.00 | 0.00 | 88 | 1010.1 |
| 20260905073718 | 78 | 220 | 0.9 | 9.6 | 0.00 | 0.00 | 0.00 | 88 | 1010.1 |
| 20260905073218 | 78 | 177 | 0.9 | 9.6 | 0.00 | 0.00 | 0.00 | 88 | 1009.8 |
| 20260905072717 | 78 | 198 | 1.7 | 9.6 | 0.00 | 0.00 | 0.00 | 88 | 1010.1 |
| 20260905072216 | 78 | 207 | 1.7 | 9.6 | 0.00 | 0.00 | 0.00 | 88 | 1010.0 |
| 20260905071716 | 78 | 204 | 0.9 | 9.6 | 0.00 | 0.00 | 0.00 | 88 | 1010.1 |
| 20260905071215 | 78 | 204 | 0.0 | 9.6 | 0.00 | 0.00 | 0.00 | 88 | 1010.0 |
| 20260905070714 | 78 | 204 | 0.9 | 9.6 | 0.00 | 0.00 | 0.00 | 88 | 1010.2 |
| 20260905070211 | 78 | 204 | 0.9 | 9.6 | 0.00 | 0.00 | 0.00 | 87 | 1010.1 |
| 20260905065154 | 78 | 190 | 0.9 | 9.6 | 0.00 | 0.00 | 0.00 | 87 | 1010.0 |
| 20260905064139 | 78 | 201 | 1.7 | 9.6 | 0.00 | 0.00 | 0.00 | 87 | 1010.4 |
| 20260905063639 | 78 | 193 | 1.7 | 9.6 | 0.00 | 0.00 | 0.00 | 87 | 1010.5 |
| 20260905063139 | 78 | 213 | 1.7 | 9.6 | 0.00 | 0.00 | 0.00 | 87 | 1010.8 |
| 20260905062638 | 78 | 197 | 0.0 | 9.6 | 0.00 | 0.00 | 0.00 | 87 | 1010.5 |
| 20260905061622 | 78 | 199 | 0.9 | 9.6 | 0.00 | 0.00 | 0.00 | 86 | 1010.9 |
| 20260905061122 | 78 | 200 | 0.0 | 9.6 | 0.00 | 0.00 | 0.00 | 86 | 1010.5 |
| 20260905060621 | 78 | 199 | 1.7 | 9.6 | 0.00 | 0.00 | 0.00 | 86 | 1011.1 |
| 20260905055605 | 78 | 196 | 1.7 | 9.6 | 0.00 | 0.00 | 0.00 | 87 | 1010.9 |
| 20260905055105 | 78 | 197 | 0.9 | 9.6 | 0.00 | 0.00 | 0.00 | 87 | 1011.4 |
| 20260905053017 | 78 | 187 | 0.0 | 9.6 | 0.00 | 0.00 | 0.00 | 87 | 1011.2 |
| 20260905052518 | 78 | 179 | 0.9 | 9.6 | 0.00 | 0.00 | 0.00 | 87 | 1011.4 |
| 20260905051502 | 78 | 159 | 0.0 | 9.6 | 0.00 | 0.00 | 0.00 | 87 | 1011.4 |
| 20260905051002 | 78 | 159 | 0.9 | 9.6 | 0.00 | 0.00 | 0.00 | 87 | 1011.2 |
| 20260905050502 | 78 | 159 | 0.9 | 9.6 | 0.00 | 0.00 | 0.00 | 87 | 1011.2 |
| 20260905050003 | 78 | 158 | 0.0 | 9.6 | 0.00 | 0.00 | 0.00 | 87 | 1011.2 |
| 20260905045502 | 78 | 158 | 0.0 | 9.6 | 0.00 | 0.00 | 0.00 | 86 | 1011.6 |
| 20260905045002 | 78 | 158 | 0.0 | 9.6 | 0.00 | 0.00 | 0.00 | 86 | 1011.6 |
| 20260905043431 | 78 | 158 | 0.0 | 9.6 | 0.00 | 0.00 | 0.00 | 86 | 1011.5 |
| 20260905042930 | 78 | 158 | 0.0 | 9.6 | 0.00 | 0.00 | 0.00 | 86 | 1011.3 |
| 20260905042429 | 78 | 158 | 0.0 | 9.6 | 0.00 | 0.00 | 0.00 | 86 | 1011.3 |
| 20260905041928 | 78 | 158 | 0.0 | 9.6 | 0.00 | 0.00 | 0.00 | 86 | 1011.4 |
| 20260905041427 | 78 | 157 | 0.9 | 9.6 | 0.00 | 0.00 | 0.00 | 87 | 1011.5 |
| 20260905040927 | 78 | 156 | 0.0 | 9.6 | 0.00 | 0.00 | 0.00 | 87 | 1011.3 |
| 20260905040426 | 78 | 156 | 0.0 | 9.6 | 0.00 | 0.00 | 0.00 | 86 | 1011.7 |
| 20260905035411 | 78 | 156 | 0.0 | 9.6 | 0.00 | 0.00 | 0.00 | 86 | 1011.6 |
| 20260905034911 | 78 | 156 | 0.0 | 9.6 | 0.00 | 0.00 | 0.00 | 86 | 1011.4 |
| 20260905034410 | 78 | 156 | 0.0 | 9.6 | 0.00 | 0.00 | 0.00 | 86 | 1011.8 |
| 20260905033910 | 78 | 156 | 0.0 | 9.6 | 0.00 | 0.00 | 0.00 | 86 | 1011.5 |
| 20260905033411 | 78 | 156 | 0.0 | 9.6 | 0.00 | 0.00 | 0.00 | 86 | 1011.9 |
| 20260905032355 | 78 | 156 | 0.0 | 9.6 | 0.00 | 0.00 | 0.00 | 86 | 1011.4 |
| 20260905031853 | 79 | 156 | 0.0 | 9.6 | 0.00 | 0.00 | 0.00 | 85 | 1011.6 |
| 20260905031352 | 79 | 156 | 0.0 | 9.6 | 0.00 | 0.00 | 0.00 | 85 | 1011.7 |
| 20260905030852 | 79 | 156 | 0.0 | 9.6 | 0.00 | 0.00 | 0.00 | 85 | 1011.6 |
| 20260905025837 | 79 | 156 | 0.0 | 9.6 | 0.00 | 0.00 | 0.00 | 85 | 1011.6 |
| 20260905025337 | 79 | 156 | 0.0 | 9.6 | 0.00 | 0.00 | 0.00 | 85 | 1011.4 |
| 20260905024322 | 79 | 156 | 0.0 | 9.6 | 0.00 | 0.00 | 0.00 | 84 | 1011.4 |
| 20260905023822 | 80 | 156 | 0.9 | 9.6 | 0.00 | 0.00 | 0.00 | 85 | 1011.4 |
| 20260905023322 | 80 | 156 | 0.0 | 9.6 | 0.00 | 0.00 | 0.00 | 84 | 1011.4 |
| 20260905022821 | 80 | 156 | 0.0 | 9.6 | 0.00 | 0.00 | 0.00 | 84 | 1011.5 |
| 20260905022321 | 80 | 156 | 0.0 | 9.6 | 0.00 | 0.00 | 0.00 | 84 | 1011.3 |
| 20260905021821 | 80 | 156 | 0.9 | 9.6 | 0.00 | 0.00 | 0.00 | 83 | 1011.4 |
| 20260905021321 | 80 | 182 | 0.0 | 9.6 | 0.00 | 0.00 | 0.00 | 83 | 1011.2 |
| 20260905020820 | 80 | 191 | 0.0 | 9.6 | 0.00 | 0.00 | 0.00 | 83 | 1011.6 |
| 20260905020319 | 80 | 191 | 0.0 | 9.6 | 0.00 | 0.00 | 0.00 | 83 | 1011.7 |
| 20260905015819 | 80 | 191 | 0.0 | 9.6 | 0.00 | 0.00 | 0.00 | 83 | 1011.4 |
| 20260905015319 | 80 | 191 | 0.0 | 9.6 | 0.00 | 0.00 | 0.00 | 83 | 1011.4 |
| 20260905013746 | 80 | 191 | 0.0 | 9.6 | 0.00 | 0.00 | 0.00 | 84 | 1011.5 |
| 20260905013246 | 80 | 191 | 0.0 | 9.6 | 0.00 | 0.00 | 0.00 | 84 | 1011.2 |
| 20260905012230 | 80 | 189 | 0.0 | 9.6 | 0.00 | 0.00 | 0.00 | 84 | 1011.2 |
| 20260905011729 | 81 | 188 | 0.0 | 9.6 | 0.00 | 0.00 | 0.00 | 83 | 1011.2 |
| 20260905011225 | 81 | 188 | 0.0 | 9.6 | 0.00 | 0.00 | 0.00 | 83 | 1010.9 |
| 20260905010725 | 81 | 175 | 0.9 | 9.6 | 0.00 | 0.00 | 0.00 | 83 | 1011.0 |
| 20260905010224 | 81 | 140 | 0.0 | 9.6 | 0.00 | 0.00 | 0.00 | 83 | 1011.1 |
| 20260905005724 | 81 | 141 | 0.9 | 9.6 | 0.00 | 0.00 | 0.00 | 82 | 1011.1 |
| 20260905005223 | 81 | 171 | 0.0 | 9.6 | 0.00 | 0.00 | 0.00 | 82 | 1010.9 |
| 20260905004723 | 81 | 171 | 0.0 | 9.6 | 0.00 | 0.00 | 0.00 | 83 | 1011.1 |
| 20260905004223 | 81 | 171 | 0.9 | 9.6 | 0.00 | 0.00 | 0.00 | 83 | 1010.5 |
| 20260905003721 | 81 | 169 | 0.0 | 9.6 | 0.00 | 0.00 | 0.00 | 83 | 1010.8 |
| 20260905003221 | 82 | 164 | 0.9 | 9.6 | 0.00 | 0.00 | 0.00 | 83 | 1010.9 |
| 20260905002720 | 82 | 151 | 1.7 | 9.6 | 0.00 | 0.00 | 0.00 | 82 | 1010.6 |
| 20260905002219 | 82 | 138 | 0.0 | 9.6 | 0.00 | 0.00 | 0.00 | 82 | 1011.0 |
| 20260905001202 | 82 | 130 | 0.0 | 9.6 | 0.00 | 0.00 | 0.00 | 82 | 1010.8 |
| 20260905000702 | 83 | 164 | 0.0 | 9.6 | 0.00 | 0.00 | 0.00 | 83 | 1011.0 |
| 20260905000204 | 83 | 164 | 1.7 | 9.6 | 0.00 | 0.00 | 0.00 | 81 | 1010.7 |
| 20260904235700 | 84 | 151 | 0.0 | 9.6 | 0.00 | 0.00 | 0.00 | 82 | 1011.0 |
| 20260904234644 | 85 | 149 | 0.0 | 9.6 | 0.00 | 0.00 | 0.00 | 81 | 1010.8 |
| 20260904234143 | 85 | 144 | 0.9 | 9.6 | 0.00 | 0.00 | 0.00 | 80 | 1010.9 |
| 20260904233643 | 86 | 159 | 2.6 | 9.6 | 0.00 | 0.00 | 0.00 | 79 | 1010.6 |
| 20260904233142 | 86 | 82 | 1.7 | 9.6 | 0.00 | 0.00 | 0.00 | 77 | 1010.9 |
| 20260904232127 | 88 | 146 | 0.9 | 9.6 | 0.00 | 0.00 | 0.00 | 75 | 1010.3 |
| 20260904231112 | 89 | 87 | 0.9 | 9.6 | 0.00 | 0.00 | 0.00 | 73 | 1011.1 |
| 20260904230611 | 89 | 79 | 0.9 | 9.6 | 0.00 | 0.00 | 0.00 | 72 | 1010.6 |
| 20260904230110 | 89 | 81 | 0.0 | 9.6 | 0.00 | 0.00 | 0.00 | 72 | 1010.5 |
| 20260904225610 | 90 | 80 | 0.0 | 9.6 | 0.00 | 0.00 | 0.00 | 71 | 1010.7 |
| 20260904225109 | 90 | 65 | 0.9 | 9.6 | 0.00 | 0.00 | 0.00 | 70 | 1010.8 |
| 20260904224609 | 91 | 90 | 0.0 | 9.6 | 0.00 | 0.00 | 0.00 | 69 | 1010.8 |
| 20260904224109 | 91 | 359 | 0.0 | 9.6 | 0.00 | 0.00 | 0.00 | 68 | 1010.9 |
| 20260904223609 | 91 | 114 | 0.0 | 9.6 | 0.00 | 0.00 | 0.00 | 68 | 1010.7 |
| 20260904222554 | 91 | 141 | 1.7 | 9.6 | 0.00 | 0.00 | 0.00 | 67 | 1012.3 |
| 20260904221022 | 92 | 78 | 2.6 | 9.6 | 0.00 | 0.00 | 0.00 | 66 | 1011.5 |
| 20260904220522 | 92 | 147 | 1.7 | 9.6 | 0.00 | 0.00 | 0.00 | 66 | 1011.7 |
| 20260904220022 | 92 | 157 | 0.9 | 9.6 | 0.00 | 0.00 | 0.00 | 65 | 1011.0 |
| 20260904215522 | 92 | 59 | 0.9 | 9.6 | 0.00 | 0.00 | 0.00 | 65 | 1010.9 |
| 20260904215022 | 92 | 110 | 0.0 | 9.6 | 0.00 | 0.00 | 0.00 | 64 | 1011.0 |
| 20260904214521 | 93 | 162 | 1.7 | 9.6 | 0.00 | 0.00 | 0.00 | 63 | 1010.8 |
| 20260904214021 | 93 | 104 | 0.9 | 9.6 | 0.00 | 0.00 | 0.00 | 63 | 1011.0 |
| 20260904213521 | 93 | 87 | 0.9 | 9.6 | 0.00 | 0.00 | 0.00 | 62 | 1011.2 |
| 20260904213021 | 93 | 62 | 2.6 | 9.6 | 0.00 | 0.00 | 0.00 | 62 | 1011.6 |
| 20260904212521 | 93 | 46 | 2.6 | 9.6 | 0.00 | 0.00 | 0.00 | 61 | 1011.9 |
| 20260904212021 | 93 | 65 | 0.9 | 9.6 | 0.00 | 0.00 | 0.00 | 60 | 1011.5 |
| 20260904211521 | 92 | 68 | 1.7 | 9.6 | 0.00 | 0.00 | 0.00 | 63 | 1011.5 |
| 20260904211021 | 91 | 74 | 0.0 | 9.6 | 0.00 | 0.00 | 0.00 | 64 | 1011.1 |
| 20260904210521 | 91 | 57 | 0.9 | 9.6 | 0.00 | 0.00 | 0.00 | 65 | 1011.1 |
| 20260904210021 | 91 | 45 | 6.1 | 9.6 | 0.00 | 0.00 | 0.00 | 65 | 1011.0 |
| 20260904205521 | 91 | 143 | 0.9 | 11.3 | 0.00 | 0.00 | 0.00 | 66 | 1010.6 |
| 20260904205020 | 91 | 183 | 3.5 | 11.3 | 0.00 | 0.00 | 0.00 | 66 | 1011.2 |
| 20260904204519 | 91 | 102 | 1.7 | 11.3 | 0.00 | 0.00 | 0.00 | 65 | 1011.1 |
| 20260904204019 | 91 | 162 | 0.9 | 11.3 | 0.00 | 0.00 | 0.00 | 65 | 1011.2 |
| 20260904203519 | 91 | 143 | 1.7 | 11.3 | 0.00 | 0.00 | 0.00 | 65 | 1011.2 |
| 20260904203019 | 91 | 145 | 2.6 | 11.3 | 0.00 | 0.00 | 0.00 | 63 | 1011.3 |
| 20260904202518 | 91 | 155 | 1.7 | 11.3 | 0.00 | 0.00 | 0.00 | 61 | 1011.5 |
| 20260904202018 | 92 | 162 | 2.6 | 11.3 | 0.00 | 0.00 | 0.00 | 61 | 1011.6 |
| 20260904201517 | 94 | 142 | 4.3 | 11.3 | 0.00 | 0.00 | 0.00 | 59 | 1011.3 |
| 20260904201017 | 95 | 162 | 3.5 | 11.3 | 0.00 | 0.00 | 0.00 | 57 | 1011.6 |
| 20260904200517 | 96 | 173 | 2.6 | 11.3 | 0.00 | 0.00 | 0.00 | 55 | 1011.7 |
| 20260904200017 | 97 | 188 | 2.6 | 11.3 | 0.00 | 0.00 | 0.00 | 53 | 1011.4 |
| 20260904195517 | 97 | 174 | 1.7 | 11.3 | 0.00 | 0.00 | 0.00 | 53 | 1012.0 |
| 20260904195016 | 97 | 141 | 3.5 | 11.3 | 0.00 | 0.00 | 0.00 | 54 | 1011.4 |
| 20260904194516 | 97 | 170 | 2.6 | 11.3 | 0.00 | 0.00 | 0.00 | 53 | 1011.6 |
| 20260904194015 | 97 | 220 | 1.7 | 11.3 | 0.00 | 0.00 | 0.00 | 53 | 1011.8 |
| 20260904192444 | 97 | 298 | 3.5 | 9.6 | 0.00 | 0.00 | 0.00 | 53 | 1012.3 |
| 20260904191943 | 96 | 309 | 3.5 | 9.6 | 0.00 | 0.00 | 0.00 | 54 | 1012.1 |
| 20260904191442 | 95 | 312 | 3.5 | 9.6 | 0.00 | 0.00 | 0.00 | 54 | 1012.2 |
| 20260904190941 | 94 | 312 | 1.7 | 9.6 | 0.00 | 0.00 | 0.00 | 55 | 1013.1 |
| 20260904190440 | 94 | 332 | 0.9 | 9.6 | 0.00 | 0.00 | 0.00 | 54 | 1012.6 |
| 20260904185424 | 95 | 42 | 1.7 | 11.3 | 0.00 | 0.00 | 0.00 | 55 | 1012.3 |
| 20260904184921 | 97 | 301 | 2.6 | 11.3 | 0.00 | 0.00 | 0.00 | 52 | 1012.3 |
| 20260904184420 | 98 | 306 | 3.5 | 9.6 | 0.00 | 0.00 | 0.00 | 48 | 1012.7 |
| 20260904183919 | 99 | 291 | 3.5 | 9.6 | 0.00 | 0.00 | 0.00 | 46 | 1012.6 |
| 20260904183418 | 100 | 252 | 2.6 | 9.6 | 0.00 | 0.00 | 0.00 | 46 | 1013.0 |
| 20260904182918 | 100 | 253 | 2.6 | 9.6 | 0.00 | 0.00 | 0.00 | 45 | 1012.6 |
| 20260904182417 | 100 | 246 | 3.5 | 9.6 | 0.00 | 0.00 | 0.00 | 45 | 1012.9 |
| 20260904181917 | 99 | 277 | 1.7 | 9.6 | 0.00 | 0.00 | 0.00 | 46 | 1012.8 |
| 20260904181416 | 100 | 287 | 1.7 | 9.6 | 0.00 | 0.00 | 0.00 | 46 | 1012.9 |
| 20260904180915 | 100 | 258 | 3.5 | 9.6 | 0.00 | 0.00 | 0.00 | 45 | 1013.0 |
| 20260904180414 | 100 | 279 | 2.6 | 9.6 | 0.00 | 0.00 | 0.00 | 46 | 1013.1 |
| 20260904175914 | 100 | 238 | 1.7 | 9.6 | 0.00 | 0.00 | 0.00 | 46 | 1013.0 |
| 20260904175413 | 100 | 244 | 4.3 | 9.6 | 0.00 | 0.00 | 0.00 | 46 | 1013.1 |
| 20260904174912 | 99 | 240 | 4.3 | 9.6 | 0.00 | 0.00 | 0.00 | 46 | 1013.4 |
| 20260904173856 | 99 | 268 | 2.6 | 9.6 | 0.00 | 0.00 | 0.00 | 47 | 1013.3 |
| 20260904173355 | 98 | 250 | 3.5 | 9.6 | 0.00 | 0.00 | 0.00 | 49 | 1013.3 |
| 20260904172855 | 98 | 270 | 3.5 | 9.6 | 0.00 | 0.00 | 0.00 | 49 | 1013.5 |
| 20260904172354 | 98 | 277 | 1.7 | 9.6 | 0.00 | 0.00 | 0.00 | 49 | 1013.5 |
| 20260904171853 | 99 | 273 | 3.5 | 9.6 | 0.00 | 0.00 | 0.00 | 48 | 1013.4 |
| 20260904170837 | 99 | 286 | 3.5 | 9.6 | 0.00 | 0.00 | 0.00 | 50 | 1013.7 |
| 20260904170336 | 99 | 212 | 2.6 | 9.6 | 0.00 | 0.00 | 0.00 | 51 | 1013.4 |
| 20260904165836 | 99 | 256 | 3.5 | 9.6 | 0.00 | 0.00 | 0.00 | 50 | 1013.8 |
| 20260904165336 | 98 | 253 | 2.6 | 9.6 | 0.00 | 0.00 | 0.00 | 51 | 1014.0 |
| 20260904164320 | 98 | 229 | 4.3 | 10.4 | 0.00 | 0.00 | 0.00 | 52 | 1013.7 |
| 20260904163304 | 97 | 232 | 1.7 | 11.3 | 0.00 | 0.00 | 0.00 | 54 | 1013.8 |
| 20260904162803 | 96 | 265 | 4.3 | 11.3 | 0.00 | 0.00 | 0.00 | 54 | 1013.8 |
| 20260904162305 | 97 | 253 | 3.5 | 11.3 | 0.00 | 0.00 | 0.00 | 53 | 1013.7 |
| 20260904161802 | 97 | 267 | 4.3 | 11.3 | 0.00 | 0.00 | 0.00 | 54 | 1014.0 |
| 20260904161301 | 96 | 230 | 2.6 | 11.3 | 0.00 | 0.00 | 0.00 | 55 | 1013.7 |
| 20260904160800 | 96 | 215 | 2.6 | 11.3 | 0.00 | 0.00 | 0.00 | 55 | 1013.8 |
| 20260904160259 | 96 | 246 | 2.6 | 10.4 | 0.00 | 0.00 | 0.00 | 55 | 1013.6 |
| 20260904155243 | 96 | 217 | 3.5 | 10.4 | 0.00 | 0.00 | 0.00 | 55 | 1013.7 |
| 20260904154742 | 96 | 206 | 3.5 | 10.4 | 0.00 | 0.00 | 0.00 | 56 | 1013.8 |
| 20260904154242 | 95 | 229 | 2.6 | 10.4 | 0.00 | 0.00 | 0.00 | 56 | 1013.9 |
| 20260904153742 | 95 | 210 | 3.5 | 10.4 | 0.00 | 0.00 | 0.00 | 57 | 1013.9 |
| 20260904153242 | 94 | 237 | 3.5 | 10.4 | 0.00 | 0.00 | 0.00 | 58 | 1013.8 |
| 20260904152225 | 94 | 213 | 3.5 | 10.4 | 0.00 | 0.00 | 0.00 | 59 | 1014.0 |
| 20260904151724 | 94 | 213 | 3.5 | 10.4 | 0.00 | 0.00 | 0.00 | 59 | 1014.0 |
| 20260904151223 | 94 | 245 | 2.6 | 10.4 | 0.00 | 0.00 | 0.00 | 60 | 1013.9 |
| 20260904150722 | 93 | 245 | 2.6 | 10.4 | 0.00 | 0.00 | 0.00 | 60 | 1014.1 |
| 20260904150222 | 93 | 247 | 3.5 | 10.4 | 0.00 | 0.00 | 0.00 | 61 | 1013.7 |
| 20260904145722 | 92 | 215 | 2.6 | 10.4 | 0.00 | 0.00 | 0.00 | 62 | 1013.8 |
| 20260904145222 | 91 | 222 | 2.6 | 10.4 | 0.00 | 0.00 | 0.00 | 63 | 1014.0 |
| 20260904144722 | 91 | 218 | 3.5 | 10.4 | 0.00 | 0.00 | 0.00 | 63 | 1013.7 |
| 20260904144222 | 91 | 229 | 2.6 | 10.4 | 0.00 | 0.00 | 0.00 | 64 | 1013.9 |
| 20260904143721 | 91 | 208 | 4.3 | 10.4 | 0.00 | 0.00 | 0.00 | 64 | 1013.9 |
| 20260904142704 | 90 | 224 | 2.6 | 10.4 | 0.00 | 0.00 | 0.00 | 66 | 1013.4 |
| 20260904142204 | 89 | 217 | 1.7 | 10.4 | 0.00 | 0.00 | 0.00 | 67 | 1013.8 |
| 20260904141704 | 89 | 229 | 2.6 | 10.4 | 0.00 | 0.00 | 0.00 | 68 | 1013.6 |
| 20260904141204 | 88 | 214 | 2.6 | 10.4 | 0.00 | 0.00 | 0.00 | 68 | 1013.5 |
| 20260904140704 | 87 | 233 | 1.7 | 10.4 | 0.00 | 0.00 | 0.00 | 70 | 1013.7 |
| 20260904140204 | 87 | 236 | 2.6 | 10.4 | 0.00 | 0.00 | 0.00 | 71 | 1013.7 |
| 20260904135704 | 86 | 225 | 1.7 | 10.4 | 0.00 | 0.00 | 0.00 | 71 | 1013.7 |
| 20260904135203 | 86 | 235 | 1.7 | 10.4 | 0.00 | 0.00 | 0.00 | 72 | 1013.4 |
| 20260904134703 | 86 | 225 | 1.7 | 10.4 | 0.00 | 0.00 | 0.00 | 72 | 1013.5 |
| 20260904134203 | 86 | 227 | 1.7 | 10.4 | 0.00 | 0.00 | 0.00 | 74 | 1013.5 |
| 20260904133702 | 85 | 200 | 0.9 | 10.4 | 0.00 | 0.00 | 0.00 | 74 | 1013.7 |
| 20260904132647 | 84 | 210 | 1.7 | 10.4 | 0.00 | 0.00 | 0.00 | 75 | 1013.3 |
| 20260904132146 | 84 | 206 | 1.7 | 10.4 | 0.00 | 0.00 | 0.00 | 76 | 1013.6 |
| 20260904131645 | 83 | 224 | 1.7 | 10.4 | 0.00 | 0.00 | 0.00 | 76 | 1013.6 |
| 20260904131145 | 83 | 218 | 1.7 | 10.4 | 0.00 | 0.00 | 0.00 | 78 | 1013.6 |
| 20260904130129 | 81 | 199 | 1.7 | 10.4 | 0.00 | 0.00 | 0.00 | 80 | 1013.6 |
| 20260904125629 | 81 | 202 | 1.7 | 10.4 | 0.00 | 0.00 | 0.00 | 82 | 1013.3 |
| 20260904125129 | 80 | 204 | 0.9 | 10.4 | 0.00 | 0.00 | 0.00 | 83 | 1013.4 |
| 20260904124628 | 79 | 208 | 0.0 | 10.4 | 0.00 | 0.00 | 0.00 | 85 | 1013.4 |
| 20260904124127 | 79 | 208 | 0.9 | 10.4 | 0.00 | 0.00 | 0.00 | 85 | 1013.5 |
| 20260904123626 | 79 | 203 | 0.9 | 10.4 | 0.00 | 0.00 | 0.00 | 86 | 1013.4 |
| 20260904122611 | 78 | 201 | 1.7 | 10.4 | 0.00 | 0.00 | 0.00 | 86 | 1013.3 |
| 20260904122110 | 78 | 188 | 1.7 | 10.4 | 0.00 | 0.00 | 0.00 | 86 | 1013.1 |
| 20260904121610 | 78 | 196 | 0.9 | 10.4 | 0.00 | 0.00 | 0.00 | 87 | 1012.9 |
| 20260904121109 | 78 | 194 | 1.7 | 10.4 | 0.00 | 0.00 | 0.00 | 87 | 1013.0 |
| 20260904120608 | 77 | 199 | 1.7 | 10.4 | 0.00 | 0.00 | 0.00 | 87 | 1012.8 |
| 20260904120107 | 77 | 192 | 0.9 | 10.4 | 0.00 | 0.00 | 0.00 | 88 | 1013.2 |
| 20260904115607 | 77 | 181 | 0.9 | 10.4 | 0.00 | 0.00 | 0.00 | 88 | 1013.0 |
| 20260904115106 | 77 | 181 | 0.0 | 10.4 | 0.00 | 0.00 | 0.00 | 88 | 1012.9 |
| 20260904114606 | 77 | 181 | 0.0 | 10.4 | 0.00 | 0.00 | 0.00 | 87 | 1012.8 |
| 20260904114106 | 77 | 181 | 0.0 | 10.4 | 0.00 | 0.00 | 0.00 | 87 | 1012.9 |
| 20260904113050 | 77 | 181 | 0.0 | 10.4 | 0.00 | 0.00 | 0.00 | 87 | 1012.6 |
| 20260904112034 | 77 | 185 | 0.9 | 10.4 | 0.00 | 0.00 | 0.00 | 87 | 1012.4 |
| 20260904111533 | 77 | 185 | 0.9 | 10.4 | 0.00 | 0.00 | 0.00 | 87 | 1012.7 |
| 20260904110517 | 77 | 184 | 0.9 | 10.4 | 0.00 | 0.00 | 0.00 | 87 | 1012.2 |
| 20260904110016 | 77 | 184 | 0.0 | 10.4 | 0.00 | 0.00 | 0.00 | 87 | 1012.3 |
| 20260904105516 | 77 | 191 | 1.7 | 10.4 | 0.00 | 0.00 | 0.00 | 87 | 1012.0 |
| 20260904105015 | 77 | 198 | 0.9 | 10.4 | 0.00 | 0.00 | 0.00 | 87 | 1012.4 |
| 20260904104515 | 77 | 198 | 0.0 | 10.4 | 0.00 | 0.00 | 0.00 | 86 | 1012.2 |
| 20260904104015 | 77 | 198 | 0.0 | 10.4 | 0.00 | 0.00 | 0.00 | 86 | 1012.1 |
| 20260904103515 | 78 | 194 | 1.7 | 10.4 | 0.00 | 0.00 | 0.00 | 86 | 1012.1 |
| 20260904103014 | 78 | 197 | 1.7 | 10.4 | 0.00 | 0.00 | 0.00 | 86 | 1012.3 |
| 20260904102513 | 78 | 191 | 1.7 | 10.4 | 0.00 | 0.00 | 0.00 | 86 | 1012.5 |
| 20260904102013 | 78 | 205 | 0.9 | 10.4 | 0.00 | 0.00 | 0.00 | 86 | 1012.2 |
| 20260904101513 | 78 | 198 | 0.9 | 10.4 | 0.00 | 0.00 | 0.00 | 86 | 1012.3 |
| 20260904101013 | 78 | 182 | 1.7 | 10.4 | 0.00 | 0.00 | 0.00 | 85 | 1012.3 |
| 20260904095957 | 78 | 199 | 0.9 | 10.4 | 0.00 | 0.00 | 0.00 | 85 | 1012.4 |
| 20260904095456 | 78 | 196 | 1.7 | 10.4 | 0.00 | 0.00 | 0.00 | 85 | 1012.3 |
| 20260904094955 | 78 | 199 | 0.9 | 10.4 | 0.00 | 0.00 | 0.00 | 85 | 1012.3 |
| 20260904092909 | 78 | 187 | 0.0 | 10.4 | 0.00 | 0.00 | 0.00 | 85 | 1012.2 |
| 20260904092409 | 78 | 186 | 0.9 | 10.4 | 0.00 | 0.00 | 0.00 | 85 | 1012.0 |
| 20260904091353 | 78 | 183 | 0.0 | 10.4 | 0.00 | 0.00 | 0.00 | 85 | 1012.1 |
| 20260904090853 | 78 | 184 | 0.0 | 10.4 | 0.00 | 0.00 | 0.00 | 85 | 1012.3 |
| 20260904090353 | 79 | 184 | 0.0 | 10.4 | 0.00 | 0.00 | 0.00 | 85 | 1012.1 |
| 20260904085852 | 79 | 184 | 0.0 | 10.4 | 0.00 | 0.00 | 0.00 | 85 | 1012.3 |
| 20260904085352 | 79 | 184 | 0.9 | 10.4 | 0.00 | 0.00 | 0.00 | 85 | 1011.9 |
| 20260904084851 | 79 | 184 | 0.0 | 10.4 | 0.00 | 0.00 | 0.00 | 85 | 1012.5 |
| 20260904084351 | 79 | 184 | 0.9 | 10.4 | 0.00 | 0.00 | 0.00 | 85 | 1012.3 |
| 20260904083851 | 79 | 184 | 0.9 | 10.4 | 0.00 | 0.00 | 0.00 | 85 | 1012.2 |
| 20260904083350 | 79 | 184 | 0.0 | 10.4 | 0.00 | 0.00 | 0.00 | 85 | 1012.1 |
| 20260904082849 | 79 | 184 | 0.0 | 10.4 | 0.00 | 0.00 | 0.00 | 85 | 1012.1 |
| 20260904082349 | 79 | 184 | 0.0 | 10.4 | 0.00 | 0.00 | 0.00 | 84 | 1012.2 |